Find STARLINK-37930

NORAD ID: 799501019 Int'l Des: 2026-143V Constellation: starlink operational

Aktuelle Ansicht

3D-Globus wird geladen...

About STARLINK-37930

STARLINK-37930 (NORAD 799501019) is a starlink constellation satellite launched Jun 15, 2026

Über STARLINK-37930

Beschreibung wird geladen...

Nächste Überflüge

Passes for default location (London). Set your location on the main map for personalized predictions.

Höhenverlauf

Loading altitude history...

Zweizeiliger Elementsatz

1 99999C 2026143V 26173.16854167 .00556410 00000-0 830970-4 0 1736
2 99999 97.2816 216.0283 0011241 273.0808 73.3190 16.04375346 12
Epoch: 22. Juni 2026 • Age: 3 hours